Location: Salamanca
(40.9670°N, 5.6500°W)
Time: 07:17:03
(UTC+02:00)

Daily predictions for brighter satellites

Satellite Brightness Start Highest point End
(mag) Time Altitude Azimuth Time Altitude Azimuth Time Altitude Azimuth
USA 215 3.7 20:29:25 10° ENE 20:35:35 43° SE 20:41:42 10° SSW
SAR-Lupe-4 3.7 20:33:48 10° SSE 20:37:17 54° ENE 20:40:47 10° N
Cosmos 1371 Rocket 4.2 20:33:35 10° NNW 20:38:54 83° WSW 20:44:14 10° SSE
Helios 1A 4.0 20:37:38 10° SE 20:41:06 26° ENE 20:44:35 10° NNE
Cosmos 2333 Rocket 3.4 20:35:37 10° SW 20:41:10 48° WNW 20:46:44 10° NNE
Cosmos 1707 3.1 20:38:11 10° NNW 20:42:02 68° W 20:45:50 10° S
SL-19 R/B 4.4 20:38:58 10° SSE 20:44:34 83° ENE 20:50:31 10° NNW
IDEFIX/ARIANE 42P 4.1 20:39:50 10° SSW 20:44:44 41° W 20:49:42 10° NNW
NOAA 12 4.1 20:43:17 10° SSE 20:48:27 62° ENE 20:53:40 10° N
ATLAS 3B R/B 4.5 20:43:07 10° WSW 20:49:57 35° NW 20:56:35 10° NNE
CZ-4C R/B 3.4 20:46:50 10° WSW 20:51:57 45° NW 20:57:44 10° NNE
COSMO-SKYMED 1 3.3 20:48:31 10° N 20:52:48 59° WNW 20:57:03 10° SSW
Cosmos 192 4.4 20:49:16 10° S 20:54:07 59° ESE 20:59:00 10° NNE
SJ-6B 2.8 20:51:10 10° SSE 20:55:07 78° ENE 20:59:11 10° N
Cosmos 1624 Rocket 4.3 20:51:08 10° NNW 20:56:20 71° WSW 21:01:28 10° S
Cosmos 2034 Rocket 4.3 20:50:37 10° SSE 20:56:30 46° E 21:02:29 10° NNE
Spot 1 4.4 20:52:26 10° SSE 20:57:04 54° ENE 21:01:28 10° N
Cosmos 1464 Rocket 4.0 20:52:17 10° S 20:58:26 64° E 21:04:34 10° NNE
Cosmos 2237 Rocket 3.8 20:59:51 10° SW 21:05:04 37° WNW 21:10:19 10° N
Cosmos 1758 3.7 21:01:54 10° SSE 21:05:45 43° E 21:09:39 10° NNE
OAO 3 Rocket 3.9 21:01:28 10° WSW 21:05:54 40° S 21:09:21 16° ESE
Atlas Centaur 2 4.3 21:00:39 10° WSW 21:07:52 31° SSW 21:14:43 10° SE
NOSS 3-2 (A) 3.5 21:02:06 10° SW 21:08:10 86° WNW 21:14:49 10° NE
ATLAS 5 CENTAUR R/B 1.8 21:04:54 10° SSW 21:09:34 65° ESE 21:14:40 10° NE
Cosmos 1766 Rocket 3.5 21:08:32 10° N 21:12:54 65° E 21:17:12 10° SSE
ALOS 2.8 21:08:49 10° SE 21:13:05 37° ENE 21:17:23 10° N
HJ-1C 3.3 21:10:46 10° SSE 21:14:06 69° ENE 21:17:28 10° N
Cosmos 1674 3.9 21:12:55 10° NNE 21:16:02 23° ENE 21:16:41 22° E
Aureole 2 Rocket 4.0 21:13:44 10° SW 21:17:59 50° WNW 21:22:11 10° N
SeaSat 1 3.5 21:14:12 10° NE 21:18:01 22° ESE 21:21:49 10° SSE
ASTRO E2 4.5 21:18:17 10° SW 21:21:19 21° S 21:23:14 15° SSE
Helios 1B rocket 2.3 21:18:46 10° NNE 21:22:54 77° ESE 21:26:59 10° S
ISS -1.5 21:20:47 10° S 21:22:21 17° SSE 21:22:21 17° SSE
SL-16 R/B 2.9 21:19:18 10° SW 21:24:53 56° WNW 21:30:30 10° NNE
Cosmos 1076 Rocket 3.7 21:20:59 10° NNW 21:25:19 73° W 21:29:38 10° S
Cosmos 1452 Rocket 3.4 21:20:30 10° NNW 21:25:47 82° ENE 21:31:02 10° SSE
Cosmos-2242 2.9 21:26:37 10° S 21:30:58 77° E 21:35:21 10° N
Meteor 1-29 2.8 21:27:30 10° NNE 21:31:01 82° E 21:34:30 10° S
Gbstr 26 Del rocket 4.2 21:34:16 10° S 21:37:53 27° SE 21:37:53 27° SE
Cosmos 468 4.4 21:37:06 10° SSW 21:42:20 83° ESE 21:47:36 10° NNE
CENTAUR R/B 2.9 21:37:52 10° S 21:43:17 37° ESE 21:49:17 10° NE
Cosmos 2151 4.4 21:41:09 10° NNE 21:43:27 22° NE 21:43:27 22° NE
ATLAS CENTAUR R/B 4.2 21:42:45 10° WNW 21:44:44 13° WSW 21:46:40 10° SW
CZ-4B DEB 2.6 21:44:25 47° SSE 21:45:14 81° ENE 21:48:30 10° N
Cosmos 1842 Rocket 3.6 21:41:05 10° SSE 21:45:15 51° E 21:49:28 10° NNE
NOSS 3-2 (C) 4.0 21:40:25 10° SW 21:46:26 61° NW 21:53:03 10° NNE
SL-8 R/B 3.8 21:42:03 10° SW 21:46:42 54° SE 21:48:00 41° E
Cosmos 1500 Rocket 3.7 21:42:22 10° N 21:46:43 53° E 21:47:54 40° SE
Cosmos 1420 Rocket 3.9 21:42:48 10° NNW 21:48:07 72° ENE 21:51:02 27° SSE
FENGYUN 3A 3.5 21:43:24 10° SSE 21:48:45 82° ENE 21:54:10 10° NNW
CZ-2D R/B 3.1 21:47:42 40° SSE 21:48:58 70° ENE 21:52:51 10° N
Cosmos 1544 3.6 21:54:54 10° SSW 21:58:34 60° W 22:02:17 10° N
ASTEX 1 3.3 21:54:47 10° N 21:59:43 88° E 22:04:36 10° S
Cosmos 1953 3.7 21:56:13 10° SSW 21:59:57 39° WNW 22:03:43 10° N
Resurs 01 Rocket 3.2 21:58:56 10° SSW 22:02:59 34° W 22:07:04 10° NNW
Cosmos 1269 Rocket 4.0 21:59:20 10° SSW 22:04:36 82° WNW 22:09:55 10° NNE
H-2A R/B 2.9 22:04:22 48° S 22:05:22 75° WSW 22:09:16 10° NNW
Cosmos 1048 Rocket 3.9 22:01:41 10° SSW 22:07:00 89° ESE 22:12:17 10° NNE
Nadezhda 4 Rocket 4.2 22:01:07 10° N 22:07:22 73° W 22:13:32 10° S
Cosmos 2369 Rocket 2.3 22:02:39 10° NNW 22:08:11 53° ENE 22:08:51 50° E
Cosmos 1943 3.2 22:02:46 10° S 22:08:14 55° ESE 22:13:43 10° NNE
Cosmos 1655 Rocket 4.2 22:05:30 10° N 22:11:27 45° ENE 22:11:36 45° E
Cosmos 1603 4.2 22:06:31 10° SW 22:12:10 61° WNW 22:17:54 10° NNE
Cosmos 1943 Rocket 3.4 22:08:00 10° N 22:12:04 26° NE 22:12:04 26° NE
Cosmos 1092 Rocket 3.9 22:07:58 10° N 22:14:12 88° W 22:18:19 22° S
Envisat 3.8 22:15:40 36° NE 22:15:40 36° NE 22:19:21 10° N
Cosmos 1743 Rocket 4.4 22:10:45 10° NNW 22:15:04 50° W 22:17:55 20° SSW
USA 215 3.8 22:12:18 10° NE 22:18:41 58° NW 22:25:02 10° WSW
Cosmos 2142 Rocket 4.4 22:12:37 10° S 22:18:57 74° E 22:25:20 10° N
Cosmos 1470 3.6 22:28:06 47° W 22:28:12 47° W 22:31:58 10° N
Cosmos 1634 Rocket 3.9 22:22:28 10° S 22:28:44 88° W 22:34:59 10° N
Cosmos 2026 Rocket 3.8 22:22:49 10° N 22:28:55 68° E 22:29:12 67° E
GP-B 3.4 22:27:09 10° N 22:31:07 64° NW 22:31:07 64° NW
Cosmos 839 Rocket 4.1 22:26:15 10° NNW 22:33:57 77° ENE 22:34:54 66° ESE
Meteor 1-11 4.3 22:35:25 10° N 22:40:42 72° NNE 22:40:42 72° NNE
ERS-1 Rocket 3.7 22:55:05 49° NNW 22:55:05 49° NNW 22:58:46 10° NNW
H-2A R/B 4.5 22:57:29 16° N 22:57:29 16° N 22:58:30 10° N
ATLAS 5 CENTAUR R/B 4.2 22:51:02 10° W 22:54:48 21° NW 22:58:48 10° NNE
SeaSat 1 3.3 22:50:58 10° NNE 22:55:43 48° WNW 23:00:27 10° SW
CENTAUR R/B 3.5 23:27:57 10° WSW 23:33:47 43° NW 23:40:22 10° NNE
Cosmos 2369 Rocket 4.3 23:47:36 10° NW 23:50:39 20° W 23:50:39 20° W
